Location: Casteau
(50.5142°N, 4.0161°E)
Time: 06:23:01
(UTC+00:00)

Nadezhda 4 Rocket - Pass Details

Date: 18 September 2020
Orbit: 949 x 993 km, 82.9° (Epoch: 22 October)

Event Time Altitude Azimuth Distance (km) Brightness Sun altitude
Rises 18:49:29 0° 353° (N) 3,643 7.3 -10.1°
Reaches altitude 10° 18:52:07 10° 359° (N) 2,690 6.5 -10.5°
Maximum altitude 18:58:02 48° 73° (ENE) 1,231 4.2 -11.4°
Drops below altitude 10° 19:03:54 10° 147° (SSE) 2,671 5.8 -12.3°
Enters shadow 19:04:42 - 149° (SSE) 2,959 6.1 -12.5°
